Location: ????????
(38.4362°N, 22.8767°E)
Time: 11:00:56
(UTC+00:00)

Cosmos 1908 - Pass Details

Date: 23 April 2024
Orbit: 468 x 485 km, 82.5° (Epoch: 18 May)

Event Time Altitude Azimuth Distance (km) Brightness Sun altitude
Rises 02:31:22 0° 350° (N) 2,547 7.0 -13.5°
Reaches altitude 10° 02:33:28 10° 349° (N) 1,658 6.0 -13.1°
Maximum altitude 02:37:05 74° 265° (W) 500 2.9 -12.5°
Drops below altitude 10° 02:40:38 10° 180° (S) 1,631 5.5 -11.8°
Sets 02:42:42 0° 178° (S) 2,499 6.4 -11.5°
